Regional Weather Roundup
Issued by NWS Charleston, SC

Current Version | Previous Version | Graphics & Text | Print | Product List | Glossary On
Versions: 1 2 3 4 5 6 7 8 9 10 11 12 13 14 15 16 17 18 19 20 21 22 23 24 25 26 27 28 29 30 31 32 33 34 35 36 37 38 39 40 41 42 43 44 45 46 47 48 49 50
000
ASUS42 KCHS 211912
RWRCHS

REGIONAL WEATHER ROUNDUP
NATIONAL WEATHER SERVICE CHARLESTON SC
300 PM EDT FRI JUL 21 2017

NOTE: "FAIR" INDICATES FEW OR NO CLOUDS BELOW 12,000 FEET WITH NO
SIGNIFICANT WEATHER AND/OR OBSTRUCTIONS TO VISIBILITY.

NOT ALL STATIONS ARE QUALITY CONTROLLED. USE DATA WITH CAUTION...
ESPECIALLY DEWPOINT OBSERVATIONS.

SCZ027-030-031-034>040-042>050-212000-
...SOUTHEAST SOUTH CAROLINA...

CITY           SKY/WX    TMP DP  RH WIND       PRES   REMARKS
N CHARLESTON   MOSUNNY   90  76  63 S14       30.01F HX 101
WATERFRONT PRK   N/A     85  77  76 S9        30.02F HX  95
JOHNS ISLAND   FAIR      88  77  70 S10       30.03F HX 100
PINOPOLIS        N/A     91  73  55 CALM      29.94F HX 100
MONCKS CORNER  FAIR      90  70  51 S6        30.01F HX  95
SUMMERVILLE    FAIR      91  73  55 S6        30.02F HX 100
BEAUFORT MCAS  MOSUNNY   91  79  67 VRB6      30.02F HX 107
BEAUFORT ARPT  FAIR      88  73  62 S7        30.02F HX  96
HILTON HEAD IS SUNNY     86  75  70 MISG      30.04F HX  95
WALTERBORO     PTCLDY    90  73  58 S6        30.02F HX  98
ALLENDALE      NOT AVBL

...SOUTHERN MIDLANDS AND PEE DEE...

CITY           SKY/WX    TMP DP  RH WIND       PRES   REMARKS
GEORGETOWN     FAIR      90  79  70 S10       30.02F HX 105
KINGSTREE      FAIR      91  73  55 SW6       30.00F HX 100
ORANGEBURG     MOSUNNY   92  74  55 MISG      30.00F HX 101
BARNWELL       FAIR      95  77  55 S6        30.00F HX 109
AIKEN          FAIR      93  73  52 S7        30.04F HX 102
MANNING        FAIR      90  70  51 W16       30.00F HX  95
COLUMBIA       MOSUNNY   95  73  48 VRB7      29.98F HX 104
SUMTER         PTSUNNY   94  72  49 S10       29.97F HX 102
FLORENCE       MOSUNNY   93  75  55 S8        29.99F HX 104
MYRTLE BEACH   MOSUNNY   88  75  66 S14       30.03F HX  97
N MYRTLE BEACH SUNNY     85  78  80 S14G23    30.01F HX  96

$$

GAZ063-065-086>088-099>101-113>116-118-119-134>141-150-212000-
...SOUTHEAST GEORGIA...

CITY           SKY/WX    TMP DP  RH WIND       PRES   REMARKS
SAVANNAH ARPT  MOSUNNY   93  75  55 SE9       30.01F HX 104
HUNTER AAF     SUNNY     91  75  60 S9        29.99F HX 101
FORT STEWART   PTSUNNY   92  74  56 SE8       29.99F HX 102
STATESBORO     MOSUNNY   94  76  56 SE6       30.00F HX 107
SYLVANIA       MOCLDY    91  78  65 SE5       30.01F HX 104
CLAXTON        FAIR      94  77  58 CALM      30.00F HX 108

...CSRA...CENTRAL AND FAR SOUTHEAST GEORGIA...

CITY           SKY/WX    TMP DP  RH WIND       PRES   REMARKS
THOMSON        MOSUNNY   95  70  44 NW3       30.04F HX 101
AUGUSTA-BUSH   SUNNY     96  74  48 CALM      29.98F HX 107
AUGUSTA-DANIEL MOSUNNY   95  70  44 VRB5      30.00F HX 101
SWAINSBORO     CLOUDY    90  72  55 S9        30.01F HX  96
VIDALIA        PTSUNNY   90  77  66 CALM      30.01F HX 102
EASTMAN        FAIR      92  60  33 NW3       30.02F HX  92
HAZLEHURST     FAIR      94  74  51 S5        29.99F HX 103
ALMA           MOSUNNY   94  74  52 VRB5      30.00F HX 104
WAYCROSS       MOSUNNY   96  80  59 S7        30.00F HX 114
JESUP          NOT AVBL
BAXLEY         FAIR      95  79  59 S7        30.00F HX 112
BRUNSWICK      SUNNY     91  75  59 SE8       30.03F HX 102
SAINT SIMONS   SUNNY     89  75  63 SE13G21   30.03F HX  99

$$

SCZ027-028-034-036>038-045-046-048>050-GAZ119-141-212000-
...LAKE AND SUPPLEMENTAL COASTAL OBSERVATIONS...

STATION/POSITION TIME  TEMP    WIND        PRES    WAVE   SWELL
                       AIR SEA DIR/SP/G            HT/PER HT/PER/DIR
                 (UTC) (F)     (DEG/KT/KT) (MB)    (FT/S) (FT/S/D)
WINYAH BAY       1745   87     190/ 10     1017.0
LAKE MURRAY      1820   95     180/  2/  2 1014.9F
ACE BASIN NERRS  1745   87     170/  2     1017.0
FORT PULASKI     1842   88 86  190/  6/ 10 1017.3F
SAPELO ISLAND    1800   91     150/  7     1017.0

$$

ANZ835-935-AMZ111-154-330-350-352-354-370-450-454-472-212000-
...C-MAN AND BUOY OBSERVATIONS...

STATION/POSITION TIME  TEMP    WIND        PRES    WAVE   SWELL
                       AIR SEA DIR/SP/G            HT/PER HT/PER/DIR
                 (UTC) (F)     (DEG/KT/KT) (MB)    (FT/S) (FT/S/D)
BUOY 41004       1850   83 84  200/  8/ 12 1017.0F   3/ 7   2/130/ 7
BUOY 41008       1850   82 84  170/  8/ 10 1017.2F   2/ 7   2/ 90/ 7
FOLLY BEACH CMAN 1800   85     190/ 10/ 12 1018.1F
CAPERS NEARSHORE 1808   82 84  210/ 12/ 17 1017.3F
FRIPP NEARSHORE  1808   83 85  190/ 10/ 12 1017.2F


STATION/POSITION TIME  TEMP    WIND        PRES    WAVE   SWELL
                       AIR SEA DIR/SP/G            HT/PER HT/PER/DIR
                 (UTC) (F)     (DEG/KT/KT) (MB)    (FT/S) (FT/S/D)
5E ST. MARYS GA  1830      85                N/A     2/ 7
FRYING PAN BUOY  1850   83 84  240/ 12/ 16 1016.6F   3/ 8   2/120/ 8
BUOY 41025       1850   83 85  210/ 16/ 19 1015.6F   4/ 8   2/130/ 8
CAPE LOOKOUT NC  1800   84     230/ 11/ 14 1016.2F
BUOY 41002       1850   82 84  230/ 10/ 12 1018.7F   4/ 9   3/110/ 9
BUOY 41010       1850   83 85   50/  2/  4 1018.0F   3/ 8   2/100/ 8
ST AUGUSTINE FL  1900   81 83  110/  8/  9 1017.8F


$$




USA.gov is the U.S. government's official web portal to all federal, state and local government web resources and services.